Goshen, IN

12:00 PM EDT on September 26, 2017 (GMT -0400)
Goshen Municipal

Weather History for KGSH - November, 2012

Change the Weather History Date:

Thursday, November 1, 2012

  Actual Average Record
Temperature  
Mean Temperature 40 °F -  
Max Temperature 51 °F 59 °F 80 °F (1950)
Min Temperature 30 °F 43 °F 21 °F (1949)
Degree Days  
Heating Degree Days 24    
Moisture  
Dew Point 30 °F    
Average Humidity 65    
Maximum Humidity 85    
Minimum Humidity 41    
Precipitation  
Precipitation 0.00 in - - ()
Sea Level Pressure  
Sea Level Pressure 29.81 in    
Wind  
Wind Speed 9 mph (WNW)    
Max Wind Speed 18 mph    
Max Gust Speed 24 mph    
Visibility 10 miles    
Events      
Averages and records for this station are not official NWS values.
T = Trace of Precipitation, MM = Missing Value Source: NWS Daily Summary

Daily Weather History Graph

Daily Weather History Graph

Search for Another Location

Airport or City:

Trip Planner

Search our weather history database for the weather conditions in past years. The results will help you decide how hot, cold, wet, or windy it might be!

Date:

Astronomy

Nov. 01, 2012 Rise Set
Actual Time 8:15 AM EDT 6:37 PM EDT
Civil Twilight 7:46 AM EDT 7:06 PM EDT
Nautical Twilight 7:13 AM EDT 7:38 PM EDT
Astronomical Twilight 6:41 AM EDT 8:11 PM EDT
Moon 8:32 PM EDT (11/1) 10:49 AM EDT (11/1)
Length of Visible Light 11h 19m
Length of Day
10h 21m
Waning Gibbous, 93% of the Moon is Illuminated
Nov 1
Waning Gibbous
Nov 6
Last Quarter
Nov 13
New
Nov 20
First Quarter
Nov 28
Full

Hourly Weather History & Observations

Time (EDT) Temp. Windchill Dew Point Humidity Pressure Visibility Wind Dir Wind Speed Gust Speed Precip Events Conditions
12:19 AM 42.8 °F 37.0 °F 35.6 °F 76% 29.77 in 10.0 mi NW 10.4 mph - N/A   Overcast
12:37 AM 42.8 °F 37.0 °F 35.6 °F 76% 29.77 in 10.0 mi NW 10.4 mph - N/A   Overcast
12:53 AM 43.0 °F 37.2 °F 35.1 °F 74% 29.78 in 10.0 mi NW 10.4 mph - N/A   Overcast
2:53 AM 39.9 °F 33.4 °F 33.1 °F 77% 29.78 in 10.0 mi WNW 10.4 mph - N/A   Partly Cloudy
3:53 AM 37.0 °F 31.6 °F 30.9 °F 79% 29.79 in 10.0 mi WNW 6.9 mph - N/A   Clear
4:53 AM 33.1 °F 26.9 °F 28.0 °F 82% 29.79 in 10.0 mi West 6.9 mph - N/A   Clear
5:53 AM 32.0 °F 25.6 °F 27.0 °F 82% 29.80 in 10.0 mi West 6.9 mph - N/A   Clear
6:53 AM 32.0 °F 26.4 °F 27.0 °F 82% 29.80 in 10.0 mi WSW 5.8 mph - N/A   Clear
7:53 AM 32.0 °F 26.4 °F 27.0 °F 82% 29.81 in 10.0 mi WSW 5.8 mph - N/A   Partly Cloudy
8:53 AM 30.0 °F 24.1 °F 26.1 °F 85% 29.83 in 10.0 mi WSW 5.8 mph - N/A   Clear
9:53 AM 37.9 °F 34.4 °F 32.0 °F 79% 29.83 in 10.0 mi West 4.6 mph - N/A   Partly Cloudy
10:53 AM 42.1 °F 36.1 °F 35.1 °F 76% 29.83 in 10.0 mi West 10.4 mph - N/A   Clear
11:53 AM 43.0 °F 38.2 °F 34.0 °F 71% 29.84 in 10.0 mi West 8.1 mph - N/A   Overcast
12:53 PM 48.9 °F - 32.0 °F 52% 29.82 in 10.0 mi WNW 10.4 mph - N/A   Clear
1:53 PM 50.0 °F - 28.9 °F 44% 29.81 in 10.0 mi NW 12.7 mph - N/A   Partly Cloudy
2:53 PM 51.1 °F - 28.0 °F 41% 29.79 in 10.0 mi West 18.4 mph 24.2 mph N/A   Mostly Cloudy
3:53 PM 50.0 °F - 27.0 °F 41% 29.79 in 10.0 mi WNW 16.1 mph - N/A   Clear
4:53 PM 48.9 °F - 27.0 °F 43% 29.80 in 10.0 mi WNW 16.1 mph 21.9 mph N/A   Overcast
5:53 PM 46.0 °F 40.6 °F 24.1 °F 42% 29.82 in 10.0 mi WNW 11.5 mph - N/A   Mostly Cloudy
6:53 PM 44.1 °F 39.0 °F 25.0 °F 47% 29.83 in 10.0 mi WNW 9.2 mph - N/A   Overcast
7:53 PM 42.1 °F 37.7 °F 26.1 °F 53% 29.85 in 10.0 mi NW 6.9 mph - N/A   Mostly Cloudy
8:53 PM 42.1 °F 38.4 °F 27.0 °F 55% 29.86 in 10.0 mi NW 5.8 mph - N/A   Overcast
9:53 PM 39.9 °F 35.8 °F 28.0 °F 63% 29.86 in 10.0 mi NW 5.8 mph - N/A   Overcast
10:53 PM 39.9 °F 37.8 °F 28.9 °F 65% 29.86 in 10.0 mi NW 3.5 mph - N/A   Overcast
11:53 PM 39.9 °F 36.7 °F 30.9 °F 70% 29.86 in 10.0 mi WNW 4.6 mph - N/A   Overcast